Weather History for Dover AFB, DE

Change the Weather History Date:

Monday, February 24, 2014

  Actual Average Record
Temperature  
Mean Temperature 36 °F -  
Max Temperature 42 °F 51 °F 77 °F (1985)
Min Temperature 30 °F 31 °F 15 °F (1967)
Degree Days  
Heating Degree Days 28    
Moisture  
Dew Point 23 °F    
Average Humidity 60    
Maximum Humidity 100    
Minimum Humidity 27    
Precipitation  
Precipitation 0.00 in - - ()
Sea Level Pressure  
Sea Level Pressure 29.98 in    
Wind  
Wind Speed 13 mph (WNW)    
Max Wind Speed 24 mph    
Max Gust Speed 33 mph    
Visibility 10 miles    
Events Rain    
Averages and records for this station are not official NWS values.
T = Trace of Precipitation, MM = Missing Value Source: NWS Daily Summary

Daily Weather History Graph

Daily Weather History Graph

Search for Another Location

Airport:

Trip Planner

Search our weather history database for the weather conditions in past years. The results will help you decide how hot, cold, wet, or windy it might be!

Date:

Astronomy

Feb. 24, 2014 Rise Set
Actual Time 6:41 AM EST 5:49 PM EST
Civil Twilight 6:14 AM EST 6:16 PM EST
Nautical Twilight 5:43 AM EST 6:47 PM EST
Astronomical Twilight 5:12 AM EST 7:18 PM EST
Moon 2:36 AM EST (2/24) 12:49 PM EST (2/24)
Length of Visible Light 12h 01m
Length of Day
11h 07m
Waning Crescent, 28% of the Moon is Illuminated
Feb 24
Waning Crescent
Mar 1
New
Mar 8
First Quarter
Mar 16
Full
Mar 23
Last Quarter

Hourly Weather History & Observations

Time (EST) Temp. Windchill Dew Point Humidity Pressure Visibility Wind Dir Wind Speed Gust Speed Precip Events Conditions
12:58 AM 40.3 °F 34.9 °F 39.7 °F 98% 29.92 in 10.0 mi NW 8.1 mph - N/A   Scattered Clouds
1:33 AM 41.0 °F 33.5 °F 39.2 °F 93% 29.92 in 10.0 mi NW 13.8 mph - N/A   Overcast
1:38 AM 41.0 °F 33.5 °F 39.2 °F 93% 29.91 in 10.0 mi NW 13.8 mph - N/A   Overcast
1:55 AM 39.2 °F 31.6 °F 39.2 °F 100% 29.92 in 10.0 mi NW 12.7 mph - N/A Rain Light Rain
1:58 AM 39.6 °F 31.7 °F 39.2 °F 99% 29.93 in 10.0 mi NW 13.8 mph - 0.00 in Rain Light Rain
2:28 AM 37.4 °F 29.3 °F 37.4 °F 100% 29.91 in 10.0 mi NW 12.7 mph - N/A Rain Light Rain
2:33 AM 37.4 °F 31.4 °F 37.4 °F 100% 29.92 in 10.0 mi NW 8.1 mph - N/A Rain Light Rain
2:38 AM 37.4 °F 30.8 °F 37.4 °F 100% 29.92 in 10.0 mi NW 9.2 mph - N/A Rain Light Rain
2:43 AM 37.4 °F 32.1 °F 37.4 °F 100% 29.92 in 10.0 mi WNW 6.9 mph - N/A Rain Light Rain
2:45 AM 37.4 °F 32.1 °F 37.4 °F 100% 29.92 in 10.0 mi West 6.9 mph - N/A   Scattered Clouds
2:58 AM 37.8 °F 32.5 °F 37.6 °F 99% 29.92 in 10.0 mi West 6.9 mph - 0.00 in   Mostly Cloudy
3:58 AM 37.9 °F 32.7 °F 37.8 °F 99% 29.91 in 10.0 mi West 6.9 mph - 0.00 in   Clear
4:58 AM 38.5 °F 32.1 °F 38.3 °F 99% 29.91 in 10.0 mi West 9.2 mph - N/A   Scattered Clouds
5:58 AM 38.1 °F 30.2 °F 35.1 °F 89% 29.92 in 10.0 mi West 12.7 mph - N/A   Scattered Clouds
6:58 AM 37.4 °F 29.3 °F 29.3 °F 73% 29.95 in 10.0 mi West 12.7 mph - N/A   Clear
7:58 AM 38.7 °F 30.9 °F 27.7 °F 65% 29.97 in 10.0 mi West 12.7 mph - N/A   Clear
8:58 AM 40.1 °F 31.6 °F 19.4 °F 43% 29.99 in 10.0 mi West 16.1 mph - N/A   Clear
9:58 AM 39.9 °F 30.0 °F 15.3 °F 37% 29.99 in 10.0 mi West 21.9 mph 25.3 mph N/A   Clear
10:58 AM 40.8 °F 31.4 °F 11.5 °F 30% 30.01 in 10.0 mi West 20.7 mph 27.6 mph N/A   Clear
11:05 AM 41.0 °F 31.9 °F 10.4 °F 29% 30.00 in 10.0 mi WNW 19.6 mph 26.5 mph N/A   Clear
11:58 AM 41.2 °F 32.4 °F 11.7 °F 30% 29.99 in 10.0 mi West 18.4 mph 24.2 mph N/A   Clear
12:58 PM 41.9 °F 33.1 °F 11.8 °F 29% 29.99 in 10.0 mi West 19.6 mph 26.5 mph N/A   Clear
1:03 PM 42.8 °F 34.5 °F 12.2 °F 29% 29.98 in 10.0 mi WNW 18.4 mph 28.8 mph N/A   Clear
1:07 PM 42.8 °F 35.1 °F 12.2 °F 29% 29.97 in 10.0 mi WSW 16.1 mph 28.8 mph N/A   Clear
1:37 PM 42.8 °F 35.1 °F 12.2 °F 29% 29.96 in 10.0 mi WNW 16.1 mph 26.5 mph N/A   Clear
1:58 PM 41.9 °F 32.1 °F 11.1 °F 28% 29.96 in 10.0 mi West 24.2 mph 33.4 mph N/A   Clear
2:58 PM 42.6 °F 35.6 °F 11.8 °F 29% 29.97 in 10.0 mi West 13.8 mph 24.2 mph N/A   Clear
3:45 PM 42.8 °F 34.8 °F 10.4 °F 27% 29.97 in 10.0 mi West 17.3 mph 26.5 mph N/A   Clear
3:58 PM 42.8 °F 34.0 °F 10.4 °F 27% 29.99 in 10.0 mi West 20.7 mph 33.4 mph N/A   Clear
4:58 PM 41.4 °F 33.0 °F 10.0 °F 28% 30.01 in 10.0 mi NW 17.3 mph - N/A   Clear
5:58 PM 38.3 °F 28.4 °F 8.2 °F 29% 30.04 in 10.0 mi WNW 19.6 mph 26.5 mph N/A   Clear
6:58 PM 36.7 °F 28.0 °F 10.4 °F 34% 30.08 in 10.0 mi WNW 13.8 mph - N/A   Clear
7:58 PM 35.6 °F 28.0 °F 10.6 °F 36% 30.10 in 10.0 mi WNW 10.4 mph 19.6 mph N/A   Clear
8:58 PM 34.2 °F 25.2 °F 10.9 °F 38% 30.12 in 10.0 mi WNW 12.7 mph - N/A   Clear
9:58 PM 32.9 °F 24.7 °F 11.7 °F 41% 30.13 in 10.0 mi WNW 10.4 mph - N/A   Clear
10:58 PM 31.3 °F 23.3 °F 12.2 °F 45% 30.12 in 10.0 mi West 9.2 mph - N/A   Clear
11:58 PM 30.2 °F 24.3 °F 13.1 °F 49% 30.13 in 10.0 mi WNW 5.8 mph - N/A   Clear